Flag for Canada Weather past 2 weeks in Timmins, Ontario, Canada

Now
41 °F

Partly sunny.


Feels Like: 36 °F
Forecast: 32 / 42 °F
Wind: 8 mph from North

Location: Timmins

Current Time: Apr 25, 2015 at 9:40:24 PM

Latest Report: Apr 25, 2015 at 9:00 PM


Visibility: 15 mi

Pressure: 29.97 "Hg

Humidity: 57%

Dew point: 27 °F

Location of TimminsLocation

Historic Weather in Timmins — Graph

°F

Timmins temperature yesterday

Maximum temperature yesterday: 37 °F (at 5:00 PM)
Minimum temperature yesterday: 18 °F (at 5:00 AM)
Average temperature yesterday: 27 °F

Past Weeks' High & Low Weather Summary

 TemperatureHumidityPressure
High66 °F (Apr 12, 5:00 PM)100% (Apr 11, 7:00 AM)30.46 "Hg (Apr 11, 7:00 AM)
Low18 °F (Apr 24, 5:00 AM)22% (Apr 14, 3:00 PM)29.10 "Hg (Apr 20, 6:00 PM)
Average39 °F62%29.88 "Hg
* Reported Apr 10 8:00 PM — Apr 25 8:00 PM, Timmins, Weather by CustomWeather, © 2015

Note: Actual official high and low records may vary slightly from our data, if they occured in-between our weather recording intervals... More about our weather records

Advertising

Timmins weather history for previous 24 hours

 ConditionsComfort  
Time TempWeatherWind HumidityBarometerVisibility
8:00 PM
Sat, Apr 25
45 °FPartly sunny.8 mph49%29.96 "Hg15 mi
7:00 PM46 °FScattered clouds.10 mph46%29.96 "Hg15 mi
6:00 PM45 °FPartly sunny.8 mph46%29.96 "Hg15 mi
5:00 PM45 °FPartly sunny.12 mph46%29.97 "Hg15 mi
4:00 PM45 °FOvercast.13 mph42%29.98 "Hg15 mi
3:00 PM43 °FOvercast.9 mph46%30.00 "Hg15 mi
2:00 PM41 °FOvercast.10 mph49%30.02 "Hg15 mi
1:00 PM39 °FOvercast.9 mph48%30.03 "Hg15 mi
12:00 PM37 °FOvercast.7 mph52%30.04 "Hg15 mi
11:00 AM34 °FBroken clouds.9 mph56%30.06 "Hg15 mi
10:00 AM34 °FOvercast.8 mph56%30.06 "Hg15 mi
9:00 AM32 °FPartly sunny.7 mph60%30.05 "Hg15 mi
8:00 AM30 °FPartly sunny.6 mph64%30.05 "Hg15 mi
7:00 AM30 °FPassing clouds.5 mph64%30.05 "Hg15 mi
6:00 AM30 °FOvercast.5 mph64%30.04 "Hg15 mi
5:00 AM30 °FOvercast.5 mph64%30.05 "Hg15 mi
4:00 AM30 °FMostly cloudy.3 mph64%30.06 "Hg15 mi
3:00 AM30 °FOvercast.3 mph64%30.06 "Hg15 mi
2:00 AM32 °FLight snow. Overcast.3 mph55%30.06 "Hg15 mi
1:00 AM32 °FOvercast.5 mph55%30.07 "Hg15 mi
12:00 AM32 °FMostly cloudy.6 mph55%30.06 "Hg15 mi
11:00 PM
Fri, Apr 24
34 °FPassing clouds.7 mph51%30.06 "Hg15 mi
10:00 PM34 °FPassing clouds.6 mph51%30.05 "Hg15 mi
9:00 PM34 °FPartly sunny.5 mph51%30.05 "Hg15 mi
Weather by CustomWeather, © 2015

See weather overviewHow to use our weather pages